Showing default

ASNARO, 40298

Orbit data source: Space-Track

ASNARO, 40298 is a payload satellite owned by J-spacesystems (JP) in SSO that was launched on Thu, 06 Nov 2014 UTC via a DNEPR launch vehicle from the Orenburg, Russia (OREN). Payload-class satellites include a variety of spacecraft equipped with specific instruments for various scientific and technological missions. These include communications satellites like Starlink; space stations such as the ISS; scientific satellites like the Hubble; Earth observation satellites from companies like Planet Labs, Umbra, and HawkEye 360; GPS; miniature CubeSats for education and research; and military/defense satellites.

Loading next visibility...
Identifier
40298, 2014-070A
Orbit
SSO
Country
Flag of JPJP / JPN
Related business
Manufacturer
NEC Toshiba/Fuchu
Mission
Operational Civil Imaging
Bus & Motor
NEXTAR-300L, AOCS?
Mass
495 kg wet, 450 kg dry
Launch date (UTC)
2014-11-06 (11 years ago)
Launch vehicle
DNEPR
Launch site
Orenburg, Russia (OREN)
Object type
Payload
Rocket body
Debris
Shape & HBR
Cyl + 2 Pan, 1.8 m
Radar Cross Section
9.327 m², Large (>1 m²)

Expand to show TLE details & history
Last TLE update: 4 hours ago

TLE from 4 hours ago
0 ASNARO
1 40298U 14070A   26034.15384118  .00011967  00000-0  56780-3 0  9994
2 40298  97.3582 113.8054 0004450 251.6838 108.3913 15.19404748623657
Epoch: 2026-02-03T03:41Z
TLE epoch observation values (Epoch: 2026-02-03T03:41:31.877Z)
Latitude
-0.00005°
Longitude
-74.91627°
Altitude
511.698 km
Speed
7.607 km/s
True Right ascension
07h 35m 13s
True Declination
0° 00' 00"
Sunlit
Object was in full shadow at epoch
Visualization orbit readout
Latitude
Unknown
Longitude
Unknown
Altitude
Unknown
Speed
Unknown
Apparent Right ascension
Unknown
Apparent Declination
Unknown
Sunlit
N/A
Visualization observer readout
Local Sidereal Time
10:03:06
Azimuth
Unknown
Elevation
Unknown
Doppler factor
Unknown
Orbital elements
Apogee altitude
507.666 km
Perigee altitude
501.54 km
Semi-major axis
6,882.74 km
Eccentricity
0.00045
Inclination
97.3582°
RAAN
113.8054°
Arg. of periapsis
251.6838°
True anomaly
108.43968°
Mean anomaly
108.3913°
Eccentric anomaly
108.41549°
Mean motion
3.80103 °/min
Orbital period
94.71 mins
BSTAR
0.0005678
Loading maneuver chart data...
Computing Atmospheric mass density...
Loading historical data...
Loading historical data...
Loading historical data...
Loading historical data...
Loading historical data...
Loading historical data...
Loading historical data...

Documentation

Showing up to 5 results
|